Location: Sternwarte ZA, Rosenfeld-Brittheim
(48.2889°N, 8.6789°E)
Time: 06:33:11
(UTC+01:00)

ISS - Pass Details

Date: 30 November 2020
Orbit: 418 x 421 km, 51.6° (Epoch: 26 November)

Event Time Altitude Azimuth Distance (km) Brightness Sun altitude
Rises 18:12:43 0° 281° (WNW) 2,365 1.2 -15.9°
Reaches altitude 10° 18:14:52 10° 288° (WNW) 1,501 -0.1 -16.2°
Maximum altitude 18:18:07 45° 3° (N) 580 -3.2 -16.7°
Enters shadow 18:18:46 39° 38° (NE) 640 -3.2 -16.8°
